EW3904 Weather Reports


Display with metric or nautical units.
time (UTC)temp
F
wind
direction
speed
MPH
gust
MPH
rain 1hr
in
rain 24hr
in
rain mn
in
humidity
%
barometer
mb
20260506134206 69 237 10.0 11.0 0.00 0.00 0.00 83 1014.8
20260506133236 69 226 8.0 12.0 0.00 0.00 0.00 84 1015.1
20260506132206 69 254 10.0 11.0 0.00 0.00 0.00 83 1014.8
20260506131236 68 253 9.0 9.0 0.00 0.00 0.00 85 1014.7
20260506130206 67 246 7.0 10.0 0.00 0.00 0.00 85 1014.9
20260506125206 67 262 7.0 7.0 0.00 0.00 0.00 86 1015.2
20260506124205 67 218 8.0 8.0 0.00 0.00 0.00 85 1014.9
20260506122205 66 214 1.0 2.0 0.00 0.00 0.00 86 1014.9
20260506121205 65 221 0.0 2.0 0.00 0.00 0.00 86 1014.7
20260506115205 65 216 2.0 4.0 0.00 0.00 0.00 86 1014.8
20260506114235 64 213 2.0 4.0 0.00 0.00 0.00 86 1014.7
20260506113235 64 207 1.0 3.0 0.00 0.00 0.00 87 1014.6
20260506112235 63 254 1.0 2.0 0.00 0.00 0.00 86 1014.5
20260506111205 63 227 0.0 2.0 0.00 0.00 0.00 87 1014.3
20260506110205 61 235 0.0 2.0 0.00 0.00 0.00 88 1014.1
20260506105235 60 203 0.0 0.0 0.00 0.00 0.00 87 1014.0
20260506104205 61 189 0.0 0.0 0.00 0.00 0.00 85 1013.6
20260506103235 61 189 0.0 0.0 0.00 0.00 0.00 85 1013.5
20260506101235 60 196 0.0 1.0 0.00 0.00 0.00 85 1013.3
20260506095205 60 196 0.0 0.0 0.00 0.00 0.00 84 1013.5
20260506094205 60 196 0.0 0.0 0.00 0.00 0.00 84 1013.4
20260506093234 60 196 0.0 2.0 0.00 0.00 0.00 83 1013.3
20260506092204 59 158 0.0 2.0 0.00 0.00 0.00 83 1013.1
20260506091235 59 176 1.0 2.0 0.00 0.00 0.00 82 1013.2
20260506090204 60 192 2.0 3.0 0.00 0.00 0.00 81 1013.3
20260506085204 60 190 0.0 2.0 0.00 0.00 0.00 80 1013.3
20260506082204 60 186 2.0 3.0 0.00 0.00 0.00 79 1013.6
20260506081204 59 183 0.0 2.0 0.00 0.00 0.00 81 1013.6
20260506080234 59 185 0.0 2.0 0.00 0.00 0.00 82 1013.7
20260506073204 58 169 0.0 0.0 0.00 0.00 0.00 81 1013.8
20260506072234 58 169 0.0 0.0 0.00 0.00 0.00 82 1013.8
20260506071234 58 169 0.0 0.0 0.00 0.00 0.00 80 1013.8
20260506070234 58 169 0.0 0.0 0.00 0.00 0.00 79 1013.9
20260506062203 59 169 0.0 0.0 0.00 0.00 0.00 81 1014.1
20260506061204 60 169 0.0 1.0 0.00 0.00 0.00 79 1013.9
20260506051233 62 216 0.0 0.0 0.00 0.00 0.00 70 1013.8
20260506050233 63 216 0.0 2.0 0.00 0.00 0.00 66 1014.1
20260506044233 63 194 0.0 2.0 0.00 0.00 0.00 68 1013.8
20260506043233 64 207 0.0 2.0 0.00 0.00 0.00 65 1013.9
20260506042232 62 179 0.0 0.0 0.00 0.00 0.00 70 1013.7
20260506041233 62 179 0.0 2.0 0.00 0.00 0.00 71 1013.7
20260506040233 62 200 0.0 2.0 0.00 0.00 0.00 72 1014.2
20260506035233 63 241 0.0 2.0 0.00 0.00 0.00 67 1014.2
20260506034232 63 241 0.0 0.0 0.00 0.00 0.00 67 1014.4
20260506033232 64 241 0.0 2.0 0.00 0.00 0.00 65 1014.2
20260506032232 64 241 1.0 2.0 0.00 0.00 0.00 66 1014.1
20260506031232 63 177 0.0 0.0 0.00 0.00 0.00 68 1013.7
20260506030232 64 177 0.0 2.0 0.00 0.00 0.00 67 1013.9
20260506025233 65 177 0.0 1.0 0.00 0.00 0.00 64 1014.0
20260506023232 65 178 0.0 2.0 0.00 0.00 0.00 63 1014.3
20260506021232 64 167 0.0 3.0 0.00 0.00 0.00 65 1013.9
20260506020232 65 167 0.0 3.0 0.00 0.00 0.00 63 1013.9
20260506015231 66 178 0.0 1.0 0.00 0.00 0.00 59 1013.8
20260506014231 67 215 2.0 2.0 0.00 0.00 0.00 59 1013.9
20260506013231 67 238 0.0 1.0 0.00 0.00 0.00 58 1013.8
20260506012231 68 155 0.0 0.0 0.00 0.00 0.00 57 1013.6
20260506011231 70 133 1.0 1.0 0.00 0.00 0.00 54 1013.5
20260506010231 70 184 0.0 1.0 0.00 0.00 0.00 51 1013.6
20260506005231 71 221 0.0 2.0 0.00 0.00 0.00 50 1013.8
20260506004231 71 198 1.0 2.0 0.00 0.00 0.00 51 1013.6
20260506003231 72 186 1.0 3.0 0.00 0.00 0.00 49 1013.6
20260506002231 73 192 1.0 3.0 0.00 0.00 0.00 47 1013.6
20260506001231 73 210 0.0 2.0 0.00 0.00 0.00 46 1013.7
20260506000231 75 175 0.0 3.0 0.00 0.00 0.00 43 1013.7
20260505235231 75 202 2.0 4.0 0.00 0.00 0.00 42 1013.7
20260505234231 76 201 2.0 5.0 0.00 0.00 0.00 41 1013.5
20260505233231 77 193 1.0 8.0 0.00 0.00 0.00 40 1013.5
20260505232231 78 232 2.0 5.0 0.00 0.00 0.00 39 1013.3
20260505231231 78 194 2.0 8.0 0.00 0.00 0.00 38 1013.3
20260505230231 78 212 2.0 8.0 0.00 0.00 0.00 37 1013.3
20260505225231 79 171 8.0 10.0 0.00 0.00 0.00 35 1013.1
20260505223230 79 178 2.0 8.0 0.00 0.00 0.00 38 1013.1
20260505222230 79 117 5.0 10.0 0.00 0.00 0.00 37 1013.1
20260505221230 79 202 5.0 13.0 0.00 0.00 0.00 37 1013.0
20260505220230 80 205 3.0 10.0 0.00 0.00 0.00 36 1013.1
20260505215230 80 214 8.0 10.0 0.00 0.00 0.00 35 1013.1
20260505214230 80 182 6.0 7.0 0.00 0.00 0.00 36 1013.1
20260505213230 80 192 4.0 11.0 0.00 0.00 0.00 36 1013.1
20260505212230 80 198 8.0 10.0 0.00 0.00 0.00 36 1013.2
20260505211230 80 197 7.0 11.0 0.00 0.00 0.00 38 1013.3
20260505210230 80 226 4.0 10.0 0.00 0.00 0.00 40 1013.3
20260505205230 80 187 6.0 14.0 0.00 0.00 0.00 40 1013.4
20260505204230 79 205 4.0 10.0 0.00 0.00 0.00 42 1013.7
20260505203230 80 275 2.0 10.0 0.00 0.00 0.00 41 1013.6
20260505202230 79 209 3.0 5.0 0.00 0.00 0.00 43 1013.6
20260505200229 80 209 5.0 10.0 0.00 0.00 0.00 42 1013.8
20260505195229 79 189 3.0 11.0 0.00 0.00 0.00 41 1013.9
20260505194229 78 267 2.0 10.0 0.00 0.00 0.00 41 1014.1
20260505193229 79 166 6.0 10.0 0.00 0.00 0.00 41 1014.2
20260505191229 78 239 4.0 7.0 0.00 0.00 0.00 43 1014.7
20260505190229 78 203 4.0 9.0 0.00 0.00 0.00 40 1014.8
20260505184229 77 137 4.0 15.0 0.00 0.00 0.00 45 1014.8
20260505183229 76 113 4.0 10.0 0.00 0.00 0.00 44 1015.0
20260505181228 77 265 5.0 5.0 0.00 0.00 0.00 46 1015.6
20260505180229 77 246 4.0 10.0 0.00 0.00 0.00 44 1015.9
20260505175228 76 213 4.0 10.0 0.00 0.00 0.00 44 1016.0
20260505174228 76 156 3.0 10.0 0.00 0.00 0.00 43 1015.9
20260505173228 76 167 9.0 14.0 0.00 0.00 0.00 44 1016.1
20260505172228 76 141 3.0 9.0 0.00 0.00 0.00 50 1016.0
20260505171228 75 231 6.0 10.0 0.00 0.00 0.00 49 1016.1
20260505170228 74 161 5.0 10.0 0.00 0.00 0.00 50 1016.0
20260505165228 74 180 4.0 9.0 0.00 0.00 0.00 52 1016.1
20260505164228 74 194 3.0 10.0 0.00 0.00 0.00 52 1016.2
20260505163228 73 232 4.0 8.0 0.00 0.00 0.00 52 1016.3
20260505160228 72 277 4.0 8.0 0.00 0.00 0.00 55 1016.7
20260505153228 71 169 4.0 6.0 0.00 0.00 0.00 59 1016.8
20260505150227 69 213 3.0 5.0 0.00 0.00 0.00 63 1016.8
20260505140227 65 195 4.0 7.0 0.00 0.00 0.00 68 1016.2